Regional Weather Roundup
Issued by NWS Cleveland, OH

Home | Current Version | Previous Version | Graphics & Text | Print | Product List | Glossary On
Versions: 1 2 3 4 5 6 7 8 9 10 11 12 13 14 15 16 17 18 19 20 21 22 23 24 25 26 27 28 29 30 31 32 33 34 35 36 37 38 39 40 41 42 43 44 45 46 47 48 49 50
000
ASUS41 KCLE 011500
RWRCLE
OHIO REGIONAL WEATHER ROUNDUP
NATIONAL WEATHER SERVICE WILMINGTON, OH
1100 AM EDT WED JUL 01 2015

NOTE: "FAIR" INDICATES FEW OR NO CLOUDS BELOW 12,000 FEET WITH NO
SIGNIFICANT WEATHER AND/OR OBSTRUCTIONS TO VISIBILITY.

OHZ001>008-015>018-024>027-034-035-043-044-011600-
   NORTHWEST OHIO

CITY           SKY/WX    TMP DP  RH WIND       PRES   REMARKS
DEFIANCE       CLOUDY    64  56  75 NW9       29.93S
FINDLAY        CLOUDY    65  57  75 NW9       29.92R
TOLEDO EXPRESS PTSUNNY   67  58  72 NW8       29.90S
TOLEDO EXEC    PTSUNNY   69  59  70 W9        29.90S
LIMA           MOSUNNY   67  57  70 NW10      29.93R
$$

OHZ009>014-019>023-028>033-038-089-011600-
   NORTHEAST OHIO

CITY           SKY/WX    TMP DP  RH WIND       PRES   REMARKS
CLE-HOPKINS    CLOUDY    65  60  84 N5        29.91R
CLE-LAKEFRONT  CLOUDY    66  60  81 CALM      29.88R
CUY CO. ARPT   CLOUDY    66  61  82 NW7       29.89R
LORAIN-ELYRIA  PTSUNNY   67  61  81 W10       29.90R
ASHTABULA      CLOUDY    64  60  87 W9        29.88R
AKRON-CANTON   CLOUDY    66  60  81 W9        29.91R
WOOSTER        NOT AVBL
MANSFIELD      CLOUDY    64  60  87 W8        29.92S
YOUNGSTOWN     PTSUNNY   66  61  84 NW10      29.88R
$$

OHZ042-051>053-060>062-070>072-077>081-011600-
  SOUTHWEST OHIO

CITY           SKY/WX    TMP DP  RH WIND       PRES   REMARKS
CINC-COVINGTON PTSUNNY   73  60  63 N3        29.94F
CINC-LUNKEN    SUNNY     71  63  75 SE3       29.94F
HAMILTON       SUNNY     74  61  63 N5        29.95F
DAYTON         NOT AVBL
WRIGHT-PAT AFB NOT AVBL
DAYTON GENERAL MOSUNNY   72  58  61 NW5       29.94S
WILMINGTON     MOSUNNY   72  58  61 VRB6      29.95S
$$

OHZ036-037-039>041-045>050-054>059-063>069-073>076-082>088-011600-
  CENTRAL AND SOUTHEAST OHIO

CITY           SKY/WX    TMP DP  RH WIND       PRES   REMARKS
COLUMBUS       MOSUNNY   70  60  70 NW7       29.93R
OSU AIRPORT    MOSUNNY   69  60  73 W5        29.94R
BOLTON FIELD   SUNNY     70  61  73 NW9       29.94R
RICKENBACK AFB NOT AVBL
NEWARK         PTSUNNY   73  61  65 W6        29.93R
MARION         CLOUDY    63  59  87 W8        29.94R FOG
LANCASTER      MOSUNNY   71  61  70 VRB5      29.94R
ZANESVILLE     PTSUNNY   70  59  68 W7        29.92S
NEW PHILLY     CLOUDY    65  60  84 W5        29.93R
$$



USA.gov is the U.S. government's official web portal to all federal, state and local government web resources and services.